Time,TemperatureF,DewpointF,PressureIn,WindDirection,WindDirectionDegrees,WindSpeedMPH,WindSpeedGustMPH,Humidity,HourlyPrecipIn,Conditions,Clouds,dailyrainin,SolarRadiationWatts/m^2,SoftwareType,DateUTC
2013-04-23 00:03:00,50.0,49.0,30.43,NNE,18,9.0,20.0,95,0.00,,,0.00,0.000000,,2013-04-23 04:03:00,
2013-04-23 00:13:00,50.0,49.0,30.43,NNE,18,9.0,20.0,95,0.00,,,0.00,0.000000,,2013-04-23 04:13:00,
2013-04-23 00:44:00,50.0,49.0,30.42,NNE,23,8.0,23.0,95,0.00,,,0.00,0.000000,,2013-04-23 04:44:00,
2013-04-23 00:53:00,50.0,49.0,30.42,NNE,23,8.0,23.0,95,0.00,,,0.00,0.000000,,2013-04-23 04:53:00,
2013-04-23 01:02:00,50.0,49.0,30.42,NNE,23,8.0,23.0,95,0.00,,,0.00,0.000000,,2013-04-23 05:02:00,
2013-04-23 01:12:00,50.0,49.0,30.42,NNE,23,8.0,23.0,95,0.00,,,0.00,0.000000,,2013-04-23 05:12:00,
2013-04-23 01:43:00,50.0,49.0,30.40,NNE,21,8.0,20.0,96,0.00,,,0.00,0.000000,,2013-04-23 05:43:00,
2013-04-23 01:52:00,50.0,49.0,30.40,NNE,21,8.0,20.0,96,0.00,,,0.00,0.000000,,2013-04-23 05:52:00,
2013-04-23 02:02:00,50.0,49.0,30.40,NNE,21,8.0,20.0,96,0.00,,,0.00,0.000000,,2013-04-23 06:02:00,
2013-04-23 02:12:00,50.0,49.0,30.40,NNE,21,8.0,20.0,96,0.00,,,0.00,0.000000,,2013-04-23 06:12:00,
2013-04-23 02:42:00,51.0,50.0,30.38,NNE,16,10.0,19.0,96,0.00,,,0.00,0.000000,,2013-04-23 06:42:00,
2013-04-23 02:52:00,51.0,50.0,30.38,NNE,16,10.0,19.0,96,0.00,,,0.00,0.000000,,2013-04-23 06:52:00,
2013-04-23 03:02:00,51.0,50.0,30.38,NNE,16,10.0,19.0,96,0.00,,,0.00,0.000000,,2013-04-23 07:02:00,
2013-04-23 03:11:00,51.0,50.0,30.38,NNE,16,10.0,19.0,96,0.00,,,0.00,0.000000,,2013-04-23 07:11:00,
2013-04-23 03:42:00,51.0,50.0,30.37,NNE,15,10.0,21.0,97,0.00,,,0.00,0.000000,,2013-04-23 07:42:00,
2013-04-23 03:52:00,51.0,50.0,30.37,NNE,15,10.0,21.0,97,0.00,,,0.00,0.000000,,2013-04-23 07:52:00,
2013-04-23 04:02:00,51.0,50.0,30.37,NNE,15,10.0,21.0,97,0.00,,,0.00,0.000000,,2013-04-23 08:02:00,
2013-04-23 04:11:00,51.0,50.0,30.37,NNE,15,10.0,21.0,97,0.00,,,0.00,0.000000,,2013-04-23 08:11:00,
2013-04-23 04:42:00,50.0,49.0,30.36,NNE,16,10.0,21.0,95,0.00,,,0.00,0.000000,,2013-04-23 08:42:00,
2013-04-23 04:52:00,50.0,49.0,30.36,NNE,16,10.0,21.0,95,0.00,,,0.00,0.000000,,2013-04-23 08:52:00,
2013-04-23 05:02:00,50.0,49.0,30.36,NNE,16,10.0,21.0,95,0.00,,,0.00,0.000000,,2013-04-23 09:02:00,
2013-04-23 05:11:00,50.0,49.0,30.36,NNE,16,10.0,21.0,95,0.00,,,0.00,0.000000,,2013-04-23 09:11:00,
2013-04-23 05:43:00,50.0,48.0,30.35,NNE,19,11.0,24.0,94,0.00,,,0.00,0.000000,,2013-04-23 09:43:00,
2013-04-23 05:53:00,50.0,48.0,30.35,NNE,19,11.0,24.0,94,0.00,,,0.00,0.000000,,2013-04-23 09:53:00,
2013-04-23 06:03:00,50.0,48.0,30.35,NNE,19,11.0,24.0,94,0.00,,,0.00,0.000000,,2013-04-23 10:03:00,
2013-04-23 06:13:00,50.0,48.0,30.35,NNE,19,11.0,24.0,94,0.00,,,0.00,0.000000,,2013-04-23 10:13:00,
2013-04-23 06:43:00,51.0,50.0,30.37,North,8,9.0,20.0,96,0.00,,,0.00,0.000000,,2013-04-23 10:43:00,
2013-04-23 06:53:00,51.0,50.0,30.37,North,8,9.0,20.0,96,0.00,,,0.00,0.000000,,2013-04-23 10:53:00,
2013-04-23 07:03:00,51.0,50.0,30.37,North,8,9.0,20.0,96,0.00,,,0.00,0.000000,,2013-04-23 11:03:00,
2013-04-23 07:12:00,51.0,50.0,30.37,North,8,9.0,20.0,96,0.00,,,0.00,0.000000,,2013-04-23 11:12:00,
2013-04-23 07:43:00,50.0,49.0,30.39,North,10,9.0,23.0,95,0.00,,,0.00,2.000000,,2013-04-23 11:43:00,
2013-04-23 07:53:00,50.0,49.0,30.39,North,10,9.0,23.0,95,0.00,,,0.00,2.000000,,2013-04-23 11:53:00,
2013-04-23 08:02:00,50.0,49.0,30.39,North,10,9.0,23.0,95,0.00,,,0.00,2.000000,,2013-04-23 12:02:00,
2013-04-23 08:12:00,50.0,49.0,30.39,North,10,9.0,23.0,95,0.00,,,0.00,2.000000,,2013-04-23 12:12:00,
2013-04-23 08:42:00,50.0,49.0,30.40,North,7,10.0,17.0,95,0.00,,,0.00,22.000000,,2013-04-23 12:42:00,
2013-04-23 08:52:00,50.0,49.0,30.40,North,7,10.0,17.0,95,0.00,,,0.00,22.000000,,2013-04-23 12:52:00,
2013-04-23 09:01:00,50.0,49.0,30.40,North,7,10.0,17.0,95,0.00,,,0.00,22.000000,,2013-04-23 13:01:00,
2013-04-23 09:12:00,50.0,49.0,30.40,North,7,10.0,17.0,95,0.00,,,0.00,22.000000,,2013-04-23 13:12:00,
2013-04-23 09:42:00,51.0,49.0,30.41,North,1,8.0,18.0,93,0.00,,,0.00,54.000000,,2013-04-23 13:42:00,
2013-04-23 09:52:00,51.0,49.0,30.41,North,1,8.0,18.0,93,0.00,,,0.00,54.000000,,2013-04-23 13:52:00,
2013-04-23 10:02:00,51.0,49.0,30.41,North,1,8.0,18.0,93,0.00,,,0.00,54.000000,,2013-04-23 14:02:00,
2013-04-23 10:11:00,51.0,49.0,30.41,North,1,8.0,18.0,93,0.00,,,0.00,54.000000,,2013-04-23 14:11:00,
2013-04-23 10:42:00,55.0,51.0,30.42,NNE,17,9.0,19.0,85,0.00,,,0.00,144.000000,,2013-04-23 14:42:00,
2013-04-23 10:52:00,55.0,51.0,30.42,NNE,17,9.0,19.0,85,0.00,,,0.00,144.000000,,2013-04-23 14:52:00,
2013-04-23 11:01:00,55.0,51.0,30.42,NNE,17,9.0,19.0,85,0.00,,,0.00,144.000000,,2013-04-23 15:01:00,
2013-04-23 11:12:00,55.0,51.0,30.42,NNE,17,9.0,19.0,85,0.00,,,0.00,144.000000,,2013-04-23 15:12:00,
2013-04-23 11:43:00,57.0,51.0,30.43,North,3,9.0,18.0,79,0.00,,,0.00,248.000000,,2013-04-23 15:43:00,
2013-04-23 11:53:00,57.0,51.0,30.43,North,3,9.0,18.0,79,0.00,,,0.00,248.000000,,2013-04-23 15:53:00,
2013-04-23 12:03:00,57.0,51.0,30.43,North,3,9.0,18.0,79,0.00,,,0.00,248.000000,,2013-04-23 16:03:00,
2013-04-23 12:12:00,57.0,51.0,30.43,North,3,9.0,18.0,79,0.00,,,0.00,248.000000,,2013-04-23 16:12:00,
2013-04-23 12:43:00,57.0,50.0,30.43,NNE,17,11.0,20.0,76,0.00,,,0.00,350.000000,,2013-04-23 16:43:00,
2013-04-23 12:53:00,57.0,50.0,30.43,NNE,17,11.0,20.0,76,0.00,,,0.00,350.000000,,2013-04-23 16:53:00,
2013-04-23 13:02:00,57.0,50.0,30.43,NNE,17,11.0,20.0,76,0.00,,,0.00,350.000000,,2013-04-23 17:02:00,
2013-04-23 13:12:00,57.0,50.0,30.43,NNE,17,11.0,20.0,76,0.00,,,0.00,350.000000,,2013-04-23 17:12:00,
2013-04-23 13:33:00,63.0,51.0,30.42,NNE,26,9.0,19.0,66,0.00,,,0.00,589.000000,,2013-04-23 17:33:00,
2013-04-23 13:43:00,63.0,51.0,30.42,NNE,26,9.0,19.0,66,0.00,,,0.00,589.000000,,2013-04-23 17:43:00,
2013-04-23 13:53:00,63.0,51.0,30.42,NNE,26,9.0,19.0,66,0.00,,,0.00,589.000000,,2013-04-23 17:53:00,
2013-04-23 14:02:00,63.0,51.0,30.42,NNE,26,9.0,19.0,66,0.00,,,0.00,589.000000,,2013-04-23 18:02:00,
2013-04-23 14:12:00,63.0,51.0,30.42,NNE,26,9.0,19.0,66,0.00,,,0.00,589.000000,,2013-04-23 18:12:00,
2013-04-23 14:42:00,64.0,50.0,30.41,North,0,10.0,23.0,60,0.00,,,0.00,975.000000,,2013-04-23 18:42:00,
2013-04-23 14:52:00,64.0,50.0,30.41,North,0,10.0,23.0,60,0.00,,,0.00,975.000000,,2013-04-23 18:52:00,
2013-04-23 15:02:00,64.0,50.0,30.41,North,0,10.0,23.0,60,0.00,,,0.00,975.000000,,2013-04-23 19:02:00,
2013-04-23 15:11:00,64.0,50.0,30.41,North,0,10.0,23.0,60,0.00,,,0.00,975.000000,,2013-04-23 19:11:00,
2013-04-23 15:42:00,67.0,51.0,30.39,NNE,15,8.0,20.0,56,0.00,,,0.00,998.000000,,2013-04-23 19:42:00,
2013-04-23 15:52:00,67.0,51.0,30.39,NNE,15,8.0,20.0,56,0.00,,,0.00,998.000000,,2013-04-23 19:52:00,
2013-04-23 16:02:00,67.0,51.0,30.39,NNE,15,8.0,20.0,56,0.00,,,0.00,998.000000,,2013-04-23 20:02:00,
2013-04-23 16:11:00,67.0,51.0,30.39,NNE,15,8.0,20.0,56,0.00,,,0.00,998.000000,,2013-04-23 20:11:00,
2013-04-23 16:42:00,69.0,50.0,30.38,NE,45,9.0,18.0,51,0.00,,,0.00,884.000000,,2013-04-23 20:42:00,
2013-04-23 16:52:00,69.0,50.0,30.38,NE,45,9.0,18.0,51,0.00,,,0.00,884.000000,,2013-04-23 20:52:00,
2013-04-23 17:02:00,69.0,50.0,30.38,NE,45,9.0,18.0,51,0.00,,,0.00,884.000000,,2013-04-23 21:02:00,
2013-04-23 17:12:00,69.0,50.0,30.38,NE,45,9.0,18.0,51,0.00,,,0.00,884.000000,,2013-04-23 21:12:00,
2013-04-23 17:43:00,70.0,51.0,30.37,North,6,6.0,16.0,51,0.00,,,0.00,706.000000,,2013-04-23 21:43:00,
2013-04-23 17:53:00,70.0,51.0,30.37,North,6,6.0,16.0,51,0.00,,,0.00,706.000000,,2013-04-23 21:53:00,
2013-04-23 18:03:00,70.0,51.0,30.37,North,6,6.0,16.0,51,0.00,,,0.00,706.000000,,2013-04-23 22:03:00,
2013-04-23 18:12:00,70.0,51.0,30.37,North,6,6.0,16.0,51,0.00,,,0.00,706.000000,,2013-04-23 22:12:00,
2013-04-23 18:42:00,68.0,50.0,30.37,NNE,14,6.0,13.0,52,0.00,,,0.00,485.000000,,2013-04-23 22:42:00,
2013-04-23 18:52:00,68.0,50.0,30.37,NNE,14,6.0,13.0,52,0.00,,,0.00,485.000000,,2013-04-23 22:52:00,
2013-04-23 19:03:00,68.0,50.0,30.37,NNE,14,6.0,13.0,52,0.00,,,0.00,485.000000,,2013-04-23 23:03:00,
2013-04-23 19:12:00,68.0,50.0,30.37,NNE,14,6.0,13.0,52,0.00,,,0.00,485.000000,,2013-04-23 23:12:00,
2013-04-23 19:42:00,64.0,49.0,30.38,NNE,29,4.0,9.0,59,0.00,,,0.00,242.000000,,2013-04-23 23:42:00,
2013-04-23 19:52:00,64.0,49.0,30.38,NNE,29,4.0,9.0,59,0.00,,,0.00,242.000000,,2013-04-23 23:52:00,
2013-04-23 20:02:00,64.0,49.0,30.38,NNE,29,4.0,9.0,59,0.00,,,0.00,242.000000,,2013-04-24 00:02:00,
2013-04-23 20:11:00,64.0,49.0,30.38,NNE,29,4.0,9.0,59,0.00,,,0.00,242.000000,,2013-04-24 00:11:00,
2013-04-23 20:42:00,57.0,52.0,30.39,NE,44,2.0,6.0,82,0.00,,,0.00,35.000000,,2013-04-24 00:42:00,
2013-04-23 20:52:00,57.0,52.0,30.39,NE,44,2.0,6.0,82,0.00,,,0.00,35.000000,,2013-04-24 00:52:00,
2013-04-23 21:02:00,57.0,52.0,30.39,NE,44,2.0,6.0,82,0.00,,,0.00,35.000000,,2013-04-24 01:02:00,
2013-04-23 21:11:00,57.0,52.0,30.39,NE,44,2.0,6.0,82,0.00,,,0.00,35.000000,,2013-04-24 01:11:00,
2013-04-23 21:18:00,57.0,54.0,30.40,South,189,4.0,9.0,89,0.00,,,0.00,0.000000,,2013-04-24 01:18:00,
2013-04-23 21:43:00,57.0,54.0,30.40,South,189,4.0,9.0,89,0.00,,,0.00,0.000000,,2013-04-24 01:43:00,
2013-04-23 21:52:00,57.0,54.0,30.40,South,189,4.0,9.0,89,0.00,,,0.00,0.000000,,2013-04-24 01:52:00,
2013-04-23 22:02:00,57.0,54.0,30.40,South,189,4.0,9.0,89,0.00,,,0.00,0.000000,,2013-04-24 02:02:00,
2013-04-23 22:18:00,53.0,52.0,30.41,South,169,3.0,6.0,95,0.00,,,0.00,0.000000,,2013-04-24 02:18:00,
2013-04-23 22:51:00,53.0,52.0,30.41,South,169,3.0,6.0,95,0.00,,,0.00,0.000000,,2013-04-24 02:51:00,
2013-04-23 23:02:00,53.0,52.0,30.41,South,169,3.0,6.0,95,0.00,,,0.00,0.000000,,2013-04-24 03:02:00,
2013-04-23 23:12:00,53.0,52.0,30.41,South,169,3.0,6.0,95,0.00,,,0.00,0.000000,,2013-04-24 03:12:00,
2013-04-23 23:54:00,52.0,51.0,30.41,SSW,203,2.0,6.0,97,0.00,,,0.00,0.000000,,2013-04-24 03:54:00,